Date String (YYYY-MM-DD hh:mm:ss) UTC,Instrument flags,absolute air pressure of the measurement (hPa),sample flow rate (lpm),inlet stack bypass flow (lpm),air temperature of the measurement (°C),ambient temperature measured by the external sensor (°C),aerosol sample conditioner tube jacket temperature (°C),OPC LED temperature (°C),internal box temperature (°C),relative humidity of the measurement (%),span deviation,mass concentration of particles derived from Lorenz-Mie calculation of OPC scattering (μg/m³),mass concentration of particles derived from Lorenz-Mie calculation of OPC scattering (μg/m³),mass concentration of particles derived from Lorenz-Mie calculation of OPC scattering (μg/m³)
DateTimeUTC,F1_M11,P_M11,Q1_M11,Q2_M11,T1_M11,T2_M11,T3_M11,T4_M11,T5_M11,U1_M11,ZSPAN_M11,X0_M11,X2_M11,X1_M11
2024-05-03 04:00:00,SystemResetWarning,0827.1,4.99,000.00,025.4,024.7,000.0,033.9,027.2,015.7,0000.0,0013.12,0003.89,0002.63
2024-05-03 04:01:00,SystemResetWarning,0827.2,5.01,000.00,025.4,024.7,000.0,033.9,027.2,015.9,0000.0,0013.27,0003.92,0002.65
2024-05-03 04:02:00,SystemResetWarning,0827.2,5.00,000.00,025.4,024.7,000.0,033.9,027.2,015.7,0000.0,0013.69,0003.93,0002.66
2024-05-03 04:03:00,SystemResetWarning,0827.2,5.00,000.00,025.4,024.7,000.0,033.9,027.2,015.6,0000.0,0012.92,0003.93,0002.66
2024-05-03 04:04:00,SystemResetWarning,0827.2,5.00,000.00,025.4,024.7,000.0,033.9,027.2,015.5,0000.0,0013.20,0003.93,0002.66
2024-05-03 04:05:00,SystemResetWarning,0827.2,5.00,000.00,025.4,024.7,000.0,033.9,027.2,015.6,0000.0,0012.44,0003.96,0002.70
2024-05-03 04:06:00,SystemResetWarning,0827.1,5.00,000.00,025.4,024.7,000.0,033.9,027.2,015.6,0000.0,0012.93,0003.96,0002.71
2024-05-03 04:07:00,SystemResetWarning,0827.2,5.02,000.00,025.4,024.7,000.0,033.9,027.2,015.7,0000.0,0012.55,0003.96,0002.71
2024-05-03 04:08:00,SystemResetWarning,0827.2,5.00,000.00,025.4,024.8,000.0,033.9,027.2,015.5,0000.0,0011.99,0003.98,0002.71
2024-05-03 04:09:00,SystemResetWarning,0827.2,5.00,000.00,025.4,024.8,000.0,033.9,027.2,015.5,0000.0,0012.03,0003.98,0002.70
2024-05-03 04:10:00,SystemResetWarning,0827.2,5.00,000.00,025.4,024.8,000.0,033.9,027.2,015.6,0000.0,0012.18,0004.01,0002.70
2024-05-03 04:11:00,SystemResetWarning,0827.2,5.00,000.00,025.4,024.7,000.0,033.9,027.2,015.4,0000.0,0012.31,0004.07,0002.70
2024-05-03 04:12:00,SystemResetWarning,0827.2,5.00,000.00,025.4,024.7,000.0,033.9,027.2,015.3,0000.0,0012.69,0004.10,0002.70
2024-05-03 04:13:00,SystemResetWarning,0827.2,5.00,000.00,025.4,024.7,000.0,033.9,027.2,015.5,0000.0,0012.67,0004.10,0002.71
2024-05-03 04:14:00,SystemResetWarning,0827.2,5.01,000.00,025.4,024.8,000.0,033.9,027.3,015.6,0000.0,0012.89,0004.12,0002.73
2024-05-03 04:15:00,SystemResetWarning,0827.2,5.01,000.00,025.4,024.8,000.0,033.9,027.3,015.6,0000.0,0012.52,0004.14,0002.71
2024-05-03 04:16:00,SystemResetWarning,0827.3,5.01,000.00,025.4,024.8,000.0,033.9,027.2,015.8,0000.0,0013.04,0004.18,0002.68
2024-05-03 04:17:00,SystemResetWarning,0827.2,4.99,000.00,025.4,024.8,000.0,033.9,027.2,015.9,0000.0,0012.44,0004.19,0002.66
2024-05-03 04:18:00,SystemResetWarning,0827.2,5.00,000.00,025.4,024.8,000.0,033.9,027.2,016.1,0000.0,0013.80,0004.23,0002.65
2024-05-03 04:19:00,SystemResetWarning,0827.2,5.00,000.00,025.4,024.8,000.0,033.9,027.2,016.1,0000.0,0013.99,0004.22,0002.63
2024-05-03 04:20:00,SystemResetWarning,0827.2,5.00,000.00,025.4,024.7,000.0,033.9,027.2,016.0,0000.0,0014.32,0004.22,0002.61
2024-05-03 04:21:00,SystemResetWarning,0827.2,5.01,000.00,025.4,024.7,000.0,033.9,027.2,016.0,0000.0,0014.66,0004.27,0002.58
2024-05-03 04:22:00,SystemResetWarning,0827.2,5.01,000.00,025.4,024.7,000.0,033.9,027.2,016.0,0000.0,0016.60,0004.26,0002.59
2024-05-03 04:23:00,SystemResetWarning,0827.2,5.01,000.00,025.4,024.7,000.0,033.9,027.1,016.1,0000.0,0016.24,0004.23,0002.58
2024-05-03 04:24:00,SystemResetWarning,0827.2,5.00,000.00,025.4,024.7,000.0,033.9,027.1,015.7,0000.0,0016.04,0004.22,0002.56
2024-05-03 04:25:00,SystemResetWarning,0827.2,5.00,000.00,025.4,024.7,000.0,033.8,027.1,015.8,0000.0,0016.17,0004.21,0002.54
2024-05-03 04:26:00,SystemResetWarning,0827.2,5.00,000.00,025.4,024.7,000.0,033.8,027.1,015.4,0000.0,0016.23,0004.17,0002.54
2024-05-03 04:27:00,SystemResetWarning,0827.2,5.00,000.00,025.4,024.7,000.0,033.8,027.1,015.5,0000.0,0015.73,0004.10,0002.55
2024-05-03 04:28:00,SystemResetWarning,0827.2,5.01,000.00,025.4,024.7,000.0,033.8,027.1,015.6,0000.0,0015.44,0004.05,0002.54
2024-05-03 04:29:00,SystemResetWarning,0827.2,5.01,000.00,025.4,024.7,000.0,033.8,027.2,015.7,0000.0,0013.88,0004.03,0002.54
2024-05-03 04:30:00,SystemResetWarning,0827.2,4.99,000.00,025.4,024.7,000.0,033.8,027.2,015.7,0000.0,0013.22,0004.01,0002.54
2024-05-03 04:31:00,SystemResetWarning,0827.2,4.99,000.00,025.4,024.7,000.0,033.8,027.1,015.8,0000.0,0012.52,0004.01,0002.56
2024-05-03 04:32:00,SystemResetWarning,0827.2,5.01,000.00,025.4,024.7,000.0,033.8,027.2,015.7,0000.0,0012.05,0003.96,0002.56
2024-05-03 04:33:00,SystemResetWarning,0827.2,5.01,000.00,025.4,024.7,000.0,033.8,027.2,015.7,0000.0,0010.27,0003.94,0002.57
2024-05-03 04:34:00,SystemResetWarning,0827.2,5.00,000.00,025.4,024.7,000.0,033.8,027.1,015.7,0000.0,0009.60,0003.89,0002.58
2024-05-03 04:35:00,SystemResetWarning,0827.2,5.00,000.00,025.4,024.7,000.0,033.8,027.2,015.8,0000.0,0009.59,0003.91,0002.57
2024-05-03 04:36:00,SystemResetWarning,0827.2,5.00,000.00,025.4,024.7,000.0,033.8,027.2,015.7,0000.0,0009.36,0003.93,0002.56
2024-05-03 04:37:00,SystemResetWarning,0827.3,5.00,000.00,025.4,024.7,000.0,033.8,027.2,015.8,0000.0,0008.87,0003.93,0002.57
2024-05-03 04:38:00,SystemResetWarning,0827.2,5.00,000.00,025.4,024.7,000.0,033.8,027.2,015.8,0000.0,0008.85,0003.91,0002.55
2024-05-03 04:39:00,SystemResetWarning,0827.3,5.00,000.00,025.4,024.7,000.0,033.8,027.2,015.8,0000.0,0008.93,0003.90,0002.56
2024-05-03 04:40:00,SystemResetWarning,0827.2,5.00,000.00,025.4,024.7,000.0,033.8,027.1,015.8,0000.0,0009.06,0003.91,0002.55
2024-05-03 04:41:00,SystemResetWarning,0827.2,5.00,000.00,025.4,024.7,000.0,033.8,027.1,015.9,0000.0,0009.18,0003.94,0002.54
2024-05-03 04:42:00,SystemResetWarning,0827.2,5.00,000.00,025.4,024.7,000.0,033.8,027.1,015.8,0000.0,0009.66,0003.97,0002.52
2024-05-03 04:43:00,SystemResetWarning,0827.2,5.00,000.00,025.4,024.7,000.0,033.8,027.1,015.8,0000.0,0010.30,0003.95,0002.51
2024-05-03 04:44:00,SystemResetWarning,0827.2,5.02,000.00,025.3,024.6,000.0,033.8,027.1,015.6,0000.0,0010.52,0003.91,0002.48
2024-05-03 04:45:00,SystemResetWarning,0827.2,5.01,000.00,025.3,024.6,000.0,033.8,027.1,015.7,0000.0,0010.72,0003.96,0002.48
2024-05-03 04:46:00,SystemResetWarning,0827.1,4.99,000.00,025.3,024.6,000.0,033.8,027.1,015.6,0000.0,0011.64,0003.98,0002.49
2024-05-03 04:47:00,SystemResetWarning,0827.1,5.00,000.00,025.3,024.6,000.0,033.8,027.0,015.6,0000.0,0011.48,0003.93,0002.49
2024-05-03 04:48:00,SystemResetWarning,0827.1,5.00,000.00,025.3,024.6,000.0,033.8,027.0,015.6,0000.0,0011.51,0003.91,0002.48
2024-05-03 04:49:00,SystemResetWarning,0827.1,5.01,000.00,025.3,024.5,000.0,033.8,027.0,015.7,0000.0,0011.73,0003.95,0002.49
2024-05-03 04:50:00,SystemResetWarning,0827.1,5.01,000.00,025.3,024.5,000.0,033.8,027.0,015.7,0000.0,0011.74,0003.99,0002.49
2024-05-03 04:51:00,SystemResetWarning,0827.1,5.00,000.00,025.3,024.5,000.0,033.7,027.0,015.7,0000.0,0011.83,0003.99,0002.49
2024-05-03 04:52:00,SystemResetWarning,0827.1,4.99,000.00,025.3,024.5,000.0,033.7,027.0,015.8,0000.0,0012.20,0003.91,0002.48
2024-05-03 04:53:00,SystemResetWarning,0827.1,4.99,000.00,025.3,024.5,000.0,033.7,027.0,015.8,0000.0,0012.85,0003.86,0002.48
2024-05-03 04:54:00,SystemResetWarning,0827.1,5.01,000.00,025.2,024.5,000.0,033.7,027.0,015.9,0000.0,0012.32,0003.88,0002.50
2024-05-03 04:55:00,SystemResetWarning,0827.1,5.01,000.00,025.2,024.5,000.0,033.7,026.9,015.9,0000.0,0011.98,0003.93,0002.52
2024-05-03 04:56:00,SystemResetWarning,0827.1,4.99,000.00,025.2,024.5,000.0,033.7,026.9,015.9,0000.0,0011.84,0003.95,0002.53
2024-05-03 04:57:00,SystemResetWarning,0827.1,5.00,000.00,025.2,024.5,000.0,033.7,027.0,015.9,0000.0,0010.96,0003.93,0002.52
2024-05-03 04:58:00,SystemResetWarning,0827.1,4.99,000.00,025.2,024.5,000.0,033.7,027.0,015.9,0000.0,0010.59,0003.93,0002.53
2024-05-03 04:59:00,SystemResetWarning,0827.1,5.00,000.00,025.2,024.5,000.0,033.7,026.9,016.0,0000.0,0010.68,0003.96,0002.55
